{"data":{"norad_id":57101,"intl_designator":"2023-090A","name":"STARLINK-6132","alt_names":[],"object_type":"PAYLOAD","status":"ACTIVE","operator":null,"country":"US","launch_date":"2023-06-23","launch_site_code":"AFETR","launch_vehicle":null,"mission":null,"orbit_class":"UNKNOWN","rcs_meters":null,"size_class":null,"mass_kg":null,"dimensions":null,"purposes":["comms"],"wikipedia_slug":null,"has_3d_model":false,"image_url":null,"decayed_at":null,"tle_current":{"epoch":"2026-09-20T16:26:29.093280Z","epoch_age_seconds":104941,"freshness":"FRESH","line1":"1 57101U 23090A   26263.68505895  .00000086  00000+0  12656-4 0  9990","line2":"2 57101  43.0019 260.3962 0001673 265.3647  94.7014 15.27578144180155","mean_motion":15.27578144,"eccentricity":0.0001673,"inclination_deg":43.0019,"raan_deg":260.3962,"arg_perigee_deg":265.3647,"mean_anomaly_deg":94.7014,"bstar":1.2656e-5,"rev_number":18015,"period_min":94.266863247292,"perigee_km":481.90677621333,"apogee_km":484.20253094062,"semimajor_km":6861.191653577,"source":"CELESTRAK","updated_at":"2026-09-21T09:00:33.557822Z"}}}